Probability
0 0 0 0 0 0 0 0 0 0 0 0 0 0 0 0 0 0 0 0 0 0 0 0 0 0 0 0 0 0 0 0 0 0 0 0 0 0 0 0 0 0 0
0 0 0 0 0 0 0 0 0 0 0 0 0 0 0 0 0 0 0 0 0 0 0 0 0 0 0 0 0 0 0 0 0 0 0 0 0 0 0 0 0 0 0
0 0 0 0 0 0 0 0 0 0 0 0 0 0 0 0 0 0 0 0 0 0 0 0 0 0 0 0 0 0 0 0 0 0 0 0 0 0 0 0 0 0 0
0 0 0 0 0 0 0 0 0 0 0 0 0 0 0 0 0 0 0 0 0 0 0 0 0 0 0 0 0 0 0 0 0 0 0 0 0 0 0 0 0 0 0
0 0 0 0 0 0 0 0 0 0 0 0 0 0 0 0 0 0 0 0 0 0 0 0 0 0 0 0 0 0 0 0 0 0 0 0 0 0 0 0 0 0 0
0 0 0 0 0 0 0 0 0 0 0 0 0 0 0 0 0 0 0 0 0 0 0 0 0 0 0 0 0 0 0 0 0 0 0 0 0 0 0 0 0 0 0
0 0 0 0 0 0 0 0 0 0 0 0 0 0 0 0 0 0 0 0 0 0 0 0 0 0 0 0 0 0 0 0 0 0 0 0 0 0 0 0 0 0 0
0 0 0 0 0 0 0 0 0 0 0 0 0 0 0 0 0 0 0 0 0 0 0 0 0 0 0 0 0 0 0 0 0 0 0 0 0 0 0 0 0 0 0
0 0 0 0 0 0 0 0 0 0 0 0 0 0 0 0 0 0 0 0 0 0 0 0 0 0 0 0 0 0 0 0 0 0 0 0 0 0 0 0 0 0 0
0 0 0 0 0 0 0 0 0 0 0 0 0 0 0 0 0 0 0 0 0 0 0 0 0 0 0 0 0 0 0 0 0 0 0 0 0 0 0 0 0 0 0
0 0 0 0 0 0 0 0 0 0 0 0 0 0 0 0 0 0 0 0 0 0 0 0 0 0 0 0 0 0 0 0 0 0 0 0 0 0 0 0 0 0 0
0 0 0 0 0 0 0 0 0 0 0 0 0 0 0 0 0 0 0 0 0 0 0 0 0 0 0 0 0 0 0 0 0 0 0 0 0 0 0 0 0 0 0
0 0 0 0 0 0 0 0 0 0 0 0 0 0 0 0 0 0 0 0 0 0 0 0 0 0 0 0 0 0 0 0 0 0 0 0 0 0 0 0 0 0 0
0 0 0 0 0 0 0 0 0 0 0 0 0 0 0 0 0 0 0 0 0 0 0 0 0 0 0 0 0 0 0 0 0 0 0 0 0 0 0 0 0 0 0
0 0 0 0 0 0 0 0 0 0 0 0 0 0 0 0 0 0 0 0 0 0 0 0 0 0 0 0 0 0 0 0 0 0 0 0 0 0 0 0 0 0 0
0 0 0 0 0 0 0 0 0 0 0 0 0 0 0 0 0 0 0 0 0 0 0 0 0 0 0 0 0 0 0 0 0 0 0 0 0 0 0 0 0 0 0
0 0 0 0 0 0 0 0 0 0 0 0 0 0 0 0 0 0 0 0 0 0 0 0 0 0 0 0 0 0 0 0 0 0 0 0 0 0 0 0 0 0 0
0 0 0 0 0 0 0 0 0 0 0 0 0 0 0 0 0 0 0 0 0 0 0 0 0 0 0 0 0 0 0 0 0 0 0 0 0 0 0 0 0 0 0
0 0 0 0 0 0 0 0 0 0 0 0 0 0 0 0 0 0 0 0 0 0 0 0 0 0 0 0 0 0 0 0 0 0 0 0 0 0 0 0 0 0 0
0 0 0 0 0 0 0 0 0 0 0 0 0 0 0 0 0 0 0 0 0 0 0 0 0 0 0 0 0 0 0 0 0 0 0 0 0 0 0 0 0 0 0
0 0 0 0 0 0 0 0 0 0 0 0 0 0 0 0 0 0 0 0 0 0 0 0 0 0 0 0 0 0 0 0 0 0 0 0 0 0 0 0 0 0 0
0 0 0 0 0 0 0 0 0 0 0 0 0 0 0 0 0 0 0 0 0 0 0 0 0 0 0 0 0 0 0 0 0 0 0 0 0 0 0 0 0 0 0
0 0 0 0 0 0 0 0 0 0 0 0 0 0 0 0 0 0 0 0 0 0 0 0 0 0 0 0 0 0 0 0 0 0 0 0 0 0 0 0 0 0 0
0 0 0 0 0 0 0 0 0 0 0 0 0 0 0 0 0 0 0 0 0 0 0 0 0 0 0 0 0 0 0 0 0 0 0 0 0 0 0 0 0 0 0
0 0 0 0 0 0 0 0 0 0 0 0 0 0 0 0 0 0 0 0 0 0 0 0 0 0 0 0 0 0 0 0 0 0 0 0 0 0 0 0 0 0 0
0 0 0 0 0 0 0 0 0 0 0 0 0 0 0 0 0 0 0 0 0 0 0 0 0 0 0 0 0 0 0 0 0 0 0 0 0 0 0 0 0 0 0
Height
5872 5872 5873 5873 5873 5873 5872 5872 5871 5870 5870 5869 5868 5867 5867 5866 5865 5863 5862 5861 5860 5858 5857 5856 5854 5853 5851 5850 5848 5847 5845 5843 5841 5838 5836 5834 5832 5830 5828 5826 5824 5823 5821
5869 5869 5869 5869 5869 5869 5869 5868 5867 5867 5866 5865 5865 5864 5863 5862 5861 5859 5858 5857 5856 5855 5853 5852 5850 5849 5847 5846 5844 5842 5841 5839 5837 5835 5832 5830 5828 5826 5824 5822 5820 5818 5816
5865 5866 5866 5865 5865 5865 5865 5864 5863 5863 5862 5861 5860 5859 5858 5857 5856 5855 5854 5853 5852 5850 5849 5847 5846 5844 5843 5841 5840 5838 5836 5834 5832 5830 5828 5825 5823 5821 5819 5817 5814 5812 5810
5862 5862 5862 5861 5861 5861 5860 5860 5859 5858 5858 5857 5856 5855 5854 5853 5852 5851 5849 5848 5847 5846 5844 5843 5841 5840 5838 5836 5834 5832 5831 5829 5827 5824 5822 5820 5818 5815 5813 5810 5808 5806 5803
5858 5858 5858 5857 5857 5857 5856 5855 5855 5854 5853 5852 5851 5850 5849 5848 5847 5846 5845 5843 5842 5840 5839 5837 5836 5834 5832 5831 5829 5827 5825 5823 5820 5818 5816 5813 5811 5808 5806 5803 5801 5798 5795
5853 5854 5853 5853 5853 5852 5852 5851 5850 5849 5848 5847 5846 5845 5844 5843 5842 5840 5839 5838 5836 5835 5833 5832 5830 5828 5826 5824 5822 5820 5818 5816 5814 5811 5809 5806 5803 5801 5798 5795 5792 5789 5786
5849 5849 5849 5849 5848 5848 5847 5846 5845 5844 5843 5842 5841 5840 5839 5837 5836 5835 5833 5832 5831 5829 5827 5825 5824 5822 5819 5818 5815 5813 5811 5808 5806 5804 5801 5798 5795 5792 5790 5786 5783 5780 5776
5845 5845 5844 5844 5843 5843 5842 5841 5840 5839 5838 5837 5836 5834 5833 5832 5830 5829 5827 5826 5824 5823 5821 5819 5817 5815 5812 5810 5808 5806 5803 5801 5798 5795 5792 5789 5786 5782 5779 5776 5773 5769 5766
5840 5840 5839 5839 5838 5837 5836 5836 5835 5834 5833 5832 5830 5829 5827 5826 5824 5823 5821 5819 5818 5816 5814 5812 5810 5808 5805 5803 5801 5798 5795 5792 5789 5786 5783 5779 5776 5772 5768 5765 5761 5758 5755
5835 5835 5834 5833 5833 5832 5831 5830 5829 5828 5827 5825 5824 5823 5821 5819 5818 5816 5814 5813 5811 5809 5807 5804 5802 5800 5797 5794 5792 5789 5786 5783 5780 5777 5773 5769 5765 5761 5757 5753 5749 5746 5743
5830 5829 5828 5827 5827 5826 5825 5824 5823 5821 5820 5819 5818 5816 5814 5813 5811 5809 5807 5805 5803 5801 5799 5796 5794 5791 5788 5786 5783 5780 5777 5774 5770 5766 5763 5758 5754 5750 5745 5741 5737 5733 5729
5824 5823 5822 5821 5820 5819 5818 5817 5816 5814 5813 5812 5810 5809 5807 5805 5803 5801 5799 5797 5795 5793 5791 5788 5785 5782 5779 5776 5773 5770 5766 5763 5759 5755 5751 5747 5743 5738 5733 5729 5724 5720 5715
5818 5817 5816 5815 5814 5813 5811 5810 5809 5807 5806 5804 5803 5801 5799 5797 5795 5793 5791 5789 5786 5784 5781 5779 5776 5773 5769 5766 5762 5759 5755 5751 5747 5743 5739 5735 5730 5725 5721 5716 5711 5706 5701
5811 5810 5809 5808 5807 5805 5804 5803 5801 5800 5798 5796 5795 5793 5791 5789 5787 5785 5782 5780 5777 5774 5772 5769 5766 5762 5759 5755 5751 5747 5743 5739 5735 5731 5726 5722 5717 5712 5707 5702 5697 5692 5688
5803 5803 5802 5800 5799 5798 5796 5795 5793 5792 5790 5788 5786 5784 5782 5780 5778 5775 5773 5770 5767 5765 5762 5759 5755 5751 5747 5743 5739 5735 5731 5726 5722 5717 5712 5708 5703 5698 5692 5687 5682 5677 5673
5796 5795 5794 5792 5791 5790 5788 5786 5784 5783 5781 5779 5777 5775 5773 5771 5768 5765 5763 5760 5757 5753 5750 5747 5744 5739 5735 5731 5727 5722 5718 5713 5708 5703 5698 5693 5688 5683 5678 5672 5667 5662 5658
5787 5786 5785 5784 5782 5781 5779 5778 5776 5774 5772 5769 5767 5765 5763 5760 5758 5755 5752 5748 5745 5742 5739 5735 5731 5727 5722 5718 5713 5709 5704 5699 5694 5689 5684 5678 5673 5668 5662 5657 5652 5647 5643
5779 5777 5776 5775 5773 5772 5770 5768 5766 5764 5762 5760 5757 5755 5752 5749 5746 5743 5740 5737 5734 5730 5726 5722 5718 5714 5709 5705 5700 5695 5690 5685 5679 5674 5669 5663 5658 5652 5647 5642 5637 5632 5627
5770 5768 5767 5765 5764 5762 5760 5758 5756 5754 5752 5749 5747 5744 5741 5738 5735 5731 5728 5725 5721 5717 5713 5709 5704 5700 5696 5691 5686 5681 5676 5670 5665 5659 5654 5648 5643 5637 5632 5626 5621 5616 5611
5760 5759 5757 5756 5754 5752 5750 5748 5745 5743 5741 5738 5735 5733 5729 5726 5723 5719 5715 5711 5708 5704 5699 5695 5691 5686 5681 5677 5672 5667 5662 5656 5650 5645 5639 5633 5628 5622 5617 5611 5606 5601 5595
5751 5749 5747 5745 5743 5741 5739 5737 5734 5732 5729 5726 5723 5720 5716 5713 5710 5706 5702 5698 5694 5690 5686 5681 5677 5672 5667 5662 5657 5652 5647 5641 5636 5630 5624 5619 5613 5607 5602 5596 5591 5585 5580
5740 5738 5736 5734 5732 5730 5727 5725 5722 5720 5717 5714 5710 5707 5703 5699 5696 5692 5688 5684 5680 5676 5671 5667 5663 5658 5653 5648 5643 5638 5632 5627 5621 5616 5610 5604 5598 5592 5587 5581 5576 5571 5565
5729 5727 5725 5723 5720 5718 5716 5713 5710 5707 5704 5701 5697 5693 5689 5685 5681 5678 5674 5670 5666 5662 5657 5653 5648 5644 5639 5634 5628 5623 5618 5612 5607 5601 5595 5589 5584 5578 5573 5567 5561 5556 5550
5718 5716 5714 5711 5709 5706 5703 5700 5697 5694 5691 5687 5683 5679 5675 5671 5667 5663 5659 5656 5652 5647 5643 5638 5634 5629 5624 5619 5614 5609 5603 5598 5592 5587 5581 5575 5570 5564 5559 5553 5547 5542 5536
5707 5704 5702 5699 5696 5694 5691 5688 5684 5681 5677 5673 5669 5665 5661 5657 5653 5649 5645 5641 5637 5633 5629 5624 5619 5615 5610 5605 5600 5595 5589 5584 5578 5573 5567 5561 5556 5550 5545 5539 5534 5528 5523
5695 5692 5690 5687 5684 5681 5678 5675 5671 5668 5664 5660 5656 5652 5648 5644 5640 5636 5631 5627 5623 5618 5614 5610 5605 5600 5596 5591 5586 5581 5576 5570 5565 5559 5553 5548 5542 5537 5531 5525 5520 5515 5510
Wind_Speed
12 12 13 13 13 13 13 13 12 12 13 13 14 14 14 14 14 14 14 15 15 15 15 15 15 15 16 16 16 15 15 16 16 16 17 17 16 16 16 16 17 18 19
13 13 13 14 14 14 14 15 14 14 15 15 15 16 16 16 15 16 16 16 16 16 16 16 16 17 17 18 17 17 18 18 18 18 19 19 19 19 19 19 19 20 21
13 14 14 15 15 16 16 15 15 16 16 16 16 16 16 17 17 17 17 17 18 17 17 18 18 18 19 19 19 20 20 20 21 21 21 21 22 22 22 22 22 23 24
14 15 15 16 16 16 16 16 16 16 16 16 16 16 16 17 18 18 18 18 19 19 19 19 20 20 20 21 21 22 22 23 23 23 23 23 24 24 25 25 25 26 27
15 15 16 16 16 16 16 16 16 16 16 16 17 17 18 18 19 19 19 20 20 20 21 21 21 22 22 23 23 23 24 24 25 25 25 26 26 27 27 28 28 29 30
15 15 16 16 16 16 16 16 17 17 17 18 18 18 19 19 20 20 20 21 21 22 22 23 23 23 24 24 25 26 26 26 26 27 27 28 29 29 30 30 31 32 32
15 16 17 17 17 17 17 18 18 19 19 19 20 20 20 20 20 21 21 22 23 23 23 24 24 24 25 26 27 27 28 28 29 29 30 30 31 31 32 32 33 34 34
17 17 17 18 18 18 18 19 19 19 19 19 20 20 21 21 22 22 23 23 24 24 25 25 25 26 27 27 28 29 30 30 30 31 32 33 33 34 35 35 36 36 35
18 18 19 19 19 19 19 20 20 20 20 21 21 21 22 23 23 24 24 25 25 25 26 26 27 28 29 29 30 31 31 32 32 33 34 35 35 36 37 37 37 37 37
18 19 20 20 20 20 21 21 22 22 22 23 23 23 24 24 25 25 25 26 26 27 27 28 28 29 30 31 32 33 33 34 34 35 36 37 37 38 39 39 39 40 40
19 19 20 20 21 21 22 23 24 24 24 24 24 25 25 25 25 26 27 27 28 28 28 29 30 31 32 33 34 35 35 36 37 38 39 39 40 40 40 41 42 43 43
20 21 22 22 23 23 23 24 24 25 25 26 26 26 27 27 27 28 29 29 30 30 30 31 32 33 34 35 36 37 38 39 40 41 41 42 43 43 43 44 45 45 46
22 22 23 23 24 24 25 25 25 26 26 27 27 27 28 28 29 29 30 31 31 32 32 33 34 35 36 37 38 39 40 41 42 43 44 44 45 46 46 47 47 48 48
24 24 24 24 25 26 26 27 27 28 28 28 28 28 29 30 30 31 32 33 34 34 35 36 37 38 38 39 40 41 42 43 44 45 46 46 47 47 48 48 49 49 49
26 26 26 26 27 27 28 28 29 29 30 30 30 30 30 31 32 33 34 35 36 37 38 38 39 40 41 42 42 43 44 45 46 47 48 48 48 49 50 50 50 50 49
27 28 28 28 29 29 29 29 29 30 30 31 31 32 32 33 33 35 36 37 38 39 40 41 42 43 43 44 44 45 46 47 48 48 49 50 50 51 51 51 51 51 50
28 28 28 29 29 29 30 30 31 31 32 32 33 34 34 35 36 37 38 39 40 41 42 42 43 44 44 45 45 46 47 48 49 50 51 51 51 52 52 52 51 51 52
28 29 29 30 30 31 31 32 32 33 33 34 34 35 36 36 38 39 39 40 41 42 43 43 44 44 45 46 47 47 48 49 50 50 51 51 52 52 53 53 52 52 52
29 30 30 31 32 33 33 34 34 35 35 35 36 37 38 39 40 41 41 42 43 43 44 45 45 46 46 47 48 48 49 50 50 51 51 51 52 52 52 52 53 53 53
30 31 32 33 33 34 35 35 36 36 37 38 38 39 40 41 42 43 43 44 44 45 46 46 47 47 47 47 48 48 49 50 50 50 51 51 51 52 52 52 52 52 52
32 33 33 34 34 35 36 37 38 38 39 39 40 41 43 43 44 44 45 45 46 46 47 47 47 47 47 48 49 49 49 50 50 50 50 50 50 51 50 50 50 51 51
34 34 35 35 35 36 37 37 38 39 40 41 42 43 44 45 45 45 46 45 46 46 46 47 47 47 48 49 49 49 49 49 49 50 51 51 51 50 50 50 50 50 50
35 35 36 36 37 37 38 39 40 40 41 42 43 44 44 44 45 45 45 45 45 45 46 46 47 48 48 48 48 48 49 49 49 50 50 50 49 49 49 49 50 50 49
35 36 37 38 38 39 40 40 41 42 42 43 44 44 44 45 45 44 45 45 45 45 46 47 47 47 47 47 47 47 48 48 49 49 49 48 48 48 48 48 48 48 48
36 37 38 39 40 40 40 41 41 42 42 43 43 43 43 43 44 44 45 45 46 46 47 47 47 47 47 47 47 47 47 47 47 47 47 47 47 47 47 47 47 47 46
38 39 39 39 39 39 40 41 41 41 42 42 42 42 43 43 44 44 44 45 46 46 47 47 47 47 47 47 46 46 46 46 46 46 47 47 47 47 47 46 46 45 44
Wind_Direction
249 249 253 256 258 262 268 274 279 283 285 285 284 285 285 286 288 289 291 292 293 294 294 294 294 296 297 299 301 301 302 304 306 305 304 302 302 299 296 295 292 289 286
251 252 258 260 261 265 270 274 278 282 284 284 282 282 284 287 287 288 290 291 291 292 292 292 292 293 295 296 298 298 299 300 301 301 301 301 299 297 295 293 292 290 288
254 258 262 264 266 267 270 273 275 279 281 282 282 283 284 286 287 289 289 289 290 290 291 291 292 293 294 295 296 296 297 297 297 297 297 298 297 295 293 293 292 291 289
257 261 262 265 268 269 271 273 275 278 279 281 282 282 283 285 286 286 286 286 288 289 289 290 290 292 293 293 293 294 294 295 295 295 295 294 294 294 294 293 292 292 291
260 262 263 266 268 271 273 273 276 278 279 280 282 282 283 284 284 285 286 285 286 287 288 290 291 291 291 292 292 293 293 294 295 295 295 294 293 293 293 292 291 291 291
260 263 265 268 270 271 272 274 276 277 279 281 282 283 285 286 286 286 286 286 286 287 288 289 290 291 291 291 292 293 293 293 294 294 294 294 294 293 293 293 292 292 292
262 266 268 269 271 271 272 275 278 280 281 281 282 283 284 285 286 286 286 287 288 288 290 290 291 291 291 291 291 292 293 293 293 293 294 294 294 294 293 294 293 293 293
264 268 270 271 273 272 274 277 279 282 283 283 283 284 285 285 287 288 289 291 292 291 291 290 290 290 291 291 292 293 293 293 293 293 294 294 294 294 294 294 295 294 293
267 270 272 274 275 275 276 278 280 282 283 283 284 286 287 287 288 288 288 290 291 290 290 290 290 290 291 292 293 294 294 294 294 294 294 295 295 295 295 295 295 294 293
270 271 273 276 277 277 278 279 280 281 282 283 284 286 287 287 287 287 288 289 290 291 292 292 293 292 292 293 294 294 294 294 295 295 296 296 296 296 296 295 295 294 293
270 271 273 275 277 278 278 279 280 281 282 283 284 286 287 288 288 288 288 289 291 292 292 293 294 293 293 293 294 294 293 294 294 295 296 296 296 296 295 295 294 294 293
270 272 276 278 279 279 280 280 281 281 281 282 284 285 286 287 287 288 288 289 290 291 292 293 293 293 293 293 294 293 293 293 294 295 295 295 295 295 295 294 293 293 293
273 276 278 279 280 280 281 281 281 283 284 284 285 286 286 287 287 288 288 289 290 290 291 293 294 294 294 294 294 294 294 294 294 294 294 294 294 294 294 294 294 293 293
277 277 278 279 280 280 281 283 284 284 285 285 285 285 286 286 287 287 288 289 290 290 292 293 294 295 295 294 293 294 294 295 295 295 295 294 294 294 294 294 293 293 293
277 279 280 281 282 282 283 283 284 285 285 285 285 285 285 286 287 288 289 290 291 291 292 294 295 295 295 295 294 294 295 295 295 295 295 294 295 295 295 294 294 293 293
279 279 280 282 282 282 284 284 285 286 286 286 286 286 286 286 288 289 290 290 290 291 291 293 294 294 294 294 295 295 295 295 296 295 295 295 295 295 295 294 294 293 292
280 281 281 281 281 282 283 285 285 285 285 286 286 287 287 287 288 289 290 290 291 291 292 293 294 294 294 295 295 295 295 295 295 295 295 295 295 295 294 294 294 293 293
280 281 282 283 283 283 284 285 285 285 286 286 286 287 288 289 290 290 290 291 292 293 294 294 295 295 295 295 295 296 296 296 296 296 296 295 295 295 294 294 294 293 292
281 282 282 283 283 284 285 285 286 286 287 288 288 288 289 290 291 292 292 292 293 294 295 295 296 296 296 296 296 296 296 296 297 297 297 297 296 296 296 295 295 295 293
283 283 283 284 285 285 286 286 287 287 288 289 289 289 290 291 291 292 293 293 293 294 295 295 296 296 296 296 296 296 297 298 298 298 298 298 297 297 296 296 296 296 295
284 284 284 284 285 286 286 287 288 288 289 289 290 290 290 291 291 292 293 293 293 294 294 295 296 296 296 297 297 297 298 299 299 298 298 298 298 298 298 297 298 297 297
284 284 285 286 287 287 287 288 289 289 289 290 290 291 291 291 292 293 293 294 294 294 294 294 295 296 297 298 298 298 298 298 299 299 299 299 298 299 299 299 298 298 298
286 286 287 287 288 288 288 288 289 289 290 291 292 292 292 292 292 293 293 293 294 294 294 295 296 297 298 298 298 298 299 299 299 300 300 300 299 299 300 300 299 299 298
286 287 288 288 289 289 289 289 290 291 292 293 293 293 293 293 292 293 293 294 294 295 296 296 297 297 298 298 299 299 299 300 300 301 301 301 300 300 300 301 301 300 300
287 288 289 289 289 289 289 290 291 292 293 294 294 294 294 295 295 294 294 294 294 295 296 296 297 297 297 298 299 300 300 301 301 302 302 302 302 301 301 301 301 301 300
288 289 290 290 290 290 291 292 292 292 293 294 294 295 295 296 296 296 296 296 296 296 296 297 297 297 297 297 298 299 300 301 302 303 303 303 303 302 302 302 302 302 301